Regional Weather Roundup
Issued by NWS State College, PA

Home | Current Version | Previous Version | Text Only | Print | Product List | Glossary Off
Versions: 1 2 3 4 5 6 7 8 9 10 11 12 13 14 15 16 17 18 19 20 21 22 23 24 25 26 27 28 29 30 31 32 33 34 35 36 37 38 39 40 41 42 43 44 45 46 47 48 49 50

000
ASUS41 KCTP 261810
RWRCTP

REGIONAL WEATHER ROUNDUP
NATIONAL WEATHER SERVICE STATE COLLEGE PA
200 PM EDT SUN MAR 26 2017

Note: "fair" indicates few or no clouds below 12,000 feet with no
significant weather and/or obstructions to visibility.

* = STATION THAT DOES NOT REPORT PRECIPITATION /E.G. RAIN...SNOW...ETC/
    THUNDER OR FOG.

PAZ002>004-007>009-013>016-020>023-029>032-261900-
WESTERN PENNSYLVANIA

CITY           SKY/WX    TMP DP  RH WIND       PRES   REMARKS
ERIE           CLOUDY    65  47  52 S14G23    30.00F
MEADVILLE      CLOUDY    64  46  52 VRB7      30.02F
FRANKLIN*      CLOUDY    63  46  55 S13G18    30.06F
NEW CASTLE     MOCLDY    69  50  50 SE13G23   30.01F
BEAVER COUNTY  NOT AVBL
BUTLER*        CLOUDY    64  48  55 SE15      30.05F
PITTSBURGH INT CLOUDY    67  49  52 SE13      30.02F
PITTSBURGH     CLOUDY    63  45  51 SE10      30.04F
INDIANA*       SUNNY     59  46  63 SE17      30.14F
LATROBE        PTSUNNY   57  46  67 E9G18     30.09F
WASHINGTON CO* CLOUDY    66  48  52 SE9       30.04F
$$

PAZ004>006-010>012-017>019-024>028-033>037-041-042-045-046-049>053-261900-
CENTRAL PENNSYLVANIA

CITY           SKY/WX    TMP DP  RH WIND       PRES   REMARKS
BRADFORD       CLOUDY    45  42  89 SE13G21   30.13F FOG
DUBOIS         CLOUDY    49  40  71 SE14G28   30.12F HAZE
CLEARFIELD       N/A    N/A N/A N/A MISG      30.21F
JOHNSTOWN      CLOUDY    47  42  83 SE12      30.15F
ALTOONA        CLOUDY    47  42  83 SE14      30.23F
STATE COLLEGE  NOT AVBL
WILLIAMSPORT   CLOUDY    44  36  73 E12       30.32F
SELINSGROVE    CLOUDY    43  38  82 SE9       30.34F
FT INDIANTOWN  CLOUDY    43  41  90 E9        30.34F
CAPITAL CITY   CLOUDY    47  38  71 E14       30.33F
HARRISBURG     CLOUDY    46  41  82 SE16      30.33F
YORK           CLOUDY    45  41  86 E10       30.32F
$$

PAZ038>040-043-044-047-048-054-055-060>062-067>071-261900-
EASTERN PENNSYLVANIA

CITY           SKY/WX    TMP DP  RH WIND       PRES   REMARKS
SCRANTON       CLOUDY    40  34  79 SE6       30.34F
MOUNT POCONO   FOG       32  32 100 SE10      30.33F VSB 3/4
ALLENTOWN      CLOUDY    43  33  68 E12       30.39F
QUAKERTOWN*    CLOUDY    41  36  81 E8        30.39F
READING        CLOUDY    43  38  82 SE7       30.36F
LANCASTER      CLOUDY    45  41  86 SE13      30.35F
COATESVILLE    CLOUDY    43  39  87 E17G23    30.36F
POTTSTOWN      CLOUDY    42  36  79 E7        30.39F
BLUE BELL      CLOUDY    43  36  75 E9        30.38F
DOYLESTOWN     CLOUDY    41  36  82 VRB5      30.38F
WILLOW GROVE   NOT AVBL
NORTH PHILA    CLOUDY    44  38  79 E13       30.41F
PHILADELPHIA   CLOUDY    44  38  79 E15       30.39F
$$




USA.gov is the U.S. government's official web portal to all federal, state and local government web resources and services.